Temp
-18 -18 -17 -17 -17 -17 -17 -17 -17 -17 -17 -16 -16 -17 -17 -18 -17 -16 -16 -16 -15 -14 -14 -14 -14 -15 -15 -15 -15 -15 -15 -14 -14 -14 -14 -14 -14 -14 -14 -14 -14 -14 -13
-18 -18 -18 -18 -17 -17 -17 -17 -17 -18 -17 -17 -18 -18 -18 -18 -18 -17 -16 -16 -15 -15 -15 -14 -14 -14 -15 -15 -15 -15 -15 -15 -14 -14 -14 -15 -14 -14 -14 -14 -14 -14 -14
-19 -19 -18 -18 -18 -18 -18 -18 -18 -18 -18 -18 -18 -18 -18 -19 -18 -17 -17 -16 -16 -16 -15 -14 -14 -14 -15 -15 -15 -15 -15 -15 -15 -14 -14 -14 -14 -14 -14 -14 -14 -13 -14
-19 -19 -18 -18 -18 -18 -18 -18 -18 -18 -18 -18 -19 -19 -19 -18 -18 -18 -17 -16 -16 -16 -15 -14 -14 -14 -15 -15 -15 -15 -15 -15 -15 -14 -15 -14 -14 -15 -14 -14 -14 -14 -14
-19 -19 -19 -18 -18 -18 -18 -18 -18 -18 -18 -18 -18 -18 -18 -19 -18 -18 -17 -16 -16 -16 -16 -15 -14 -14 -15 -15 -15 -15 -15 -15 -15 -15 -15 -15 -15 -14 -15 -14 -14 -14 -14
-18 -18 -18 -18 -19 -18 -18 -18 -18 -18 -18 -19 -19 -19 -19 -19 -18 -17 -17 -17 -16 -15 -15 -15 -14 -15 -15 -15 -16 -15 -15 -15 -15 -15 -15 -15 -15 -15 -15 -15 -14 -14 -14
-19 -19 -19 -19 -18 -19 -18 -18 -18 -18 -19 -19 -19 -19 -19 -19 -19 -18 -17 -17 -16 -16 -15 -15 -15 -14 -15 -15 -15 -15 -15 -15 -15 -15 -15 -15 -15 -15 -15 -14 -14 -14 -14
-20 -19 -19 -18 -18 -18 -18 -19 -18 -18 -19 -19 -19 -19 -19 -19 -19 -18 -18 -17 -17 -17 -16 -15 -15 -15 -15 -15 -15 -15 -15 -15 -15 -15 -16 -15 -15 -15 -15 -15 -14 -14 -14
-21 -21 -20 -20 -19 -19 -19 -19 -19 -19 -19 -19 -18 -18 -18 -18 -19 -18 -18 -18 -17 -17 -16 -16 -15 -15 -15 -15 -15 -15 -15 -15 -16 -15 -16 -15 -15 -15 -15 -15 -15 -14 -14
-22 -22 -21 -21 -20 -20 -20 -20 -20 -19 -19 -19 -18 -18 -18 -18 -18 -18 -18 -17 -17 -17 -17 -16 -16 -15 -15 -15 -15 -15 -15 -15 -15 -15 -15 -15 -15 -15 -15 -15 -15 -15 -14
-21 -21 -21 -21 -20 -20 -20 -20 -20 -20 -19 -19 -19 -18 -18 -18 -18 -18 -18 -18 -17 -17 -17 -16 -16 -16 -15 -15 -15 -15 -15 -15 -16 -16 -15 -15 -15 -14 -14 -15 -15 -15 -15
-21 -20 -20 -20 -20 -20 -20 -20 -20 -20 -20 -19 -19 -19 -19 -19 -18 -18 -17 -17 -17 -17 -17 -17 -16 -16 -15 -15 -15 -15 -15 -15 -16 -16 -16 -16 -15 -15 -14 -15 -15 -15 -15
-21 -21 -21 -21 -21 -21 -20 -20 -20 -19 -19 -19 -19 -19 -19 -19 -19 -18 -17 -17 -17 -17 -17 -16 -16 -16 -15 -15 -15 -15 -15 -15 -16 -16 -16 -16 -15 -15 -14 -15 -15 -15 -15
-22 -22 -22 -22 -22 -22 -22 -21 -21 -20 -20 -19 -19 -19 -19 -18 -18 -17 -17 -17 -17 -16 -16 -16 -16 -16 -15 -15 -15 -16 -15 -15 -16 -16 -16 -16 -16 -15 -15 -15 -15 -15 -15
-23 -22 -22 -23 -23 -23 -23 -22 -22 -21 -21 -20 -19 -19 -18 -18 -18 -17 -17 -17 -16 -16 -16 -16 -16 -16 -16 -16 -16 -15 -15 -16 -16 -16 -16 -16 -16 -15 -15 -15 -15 -15 -15
-23 -23 -23 -23 -23 -23 -23 -23 -22 -22 -22 -21 -20 -19 -19 -18 -18 -18 -17 -17 -17 -16 -16 -16 -16 -16 -16 -16 -16 -16 -16 -16 -16 -16 -17 -16 -16 -15 -15 -15 -15 -15 -15
-22 -22 -23 -23 -23 -23 -23 -23 -23 -22 -22 -22 -22 -22 -21 -21 -20 -19 -19 -18 -17 -16 -16 -15 -16 -16 -16 -16 -16 -16 -16 -16 -16 -16 -16 -16 -16 -16 -16 -15 -15 -15 -16
-23 -23 -23 -22 -23 -23 -23 -23 -22 -22 -22 -22 -22 -22 -22 -22 -22 -22 -20 -20 -18 -17 -16 -15 -15 -16 -17 -17 -16 -17 -16 -16 -16 -16 -16 -17 -16 -16 -16 -16 -16 -16 -16
-24 -24 -24 -23 -23 -23 -24 -23 -23 -22 -22 -21 -21 -21 -22 -22 -22 -22 -22 -22 -20 -18 -17 -16 -16 -16 -16 -16 -16 -17 -16 -16 -16 -16 -17 -17 -16 -16 -16 -16 -17 -17 -17
-25 -24 -24 -24 -24 -23 -24 -23 -23 -22 -22 -22 -22 -22 -22 -22 -22 -22 -22 -22 -21 -19 -17 -16 -16 -16 -16 -17 -17 -16 -16 -17 -16 -16 -17 -16 -16 -16 -16 -17 -17 -18 -17
-25 -24 -25 -25 -25 -24 -23 -23 -23 -22 -22 -22 -21 -21 -22 -22 -22 -22 -22 -22 -22 -21 -18 -17 -17 -16 -17 -17 -17 -18 -17 -16 -17 -17 -17 -17 -17 -17 -17 -17 -17 -18 -18
-25 -25 -25 -25 -25 -25 -24 -23 -23 -23 -22 -22 -22 -22 -22 -22 -22 -21 -21 -22 -22 -22 -20 -18 -17 -17 -17 -18 -18 -16 -16 -17 -17 -17 -17 -17 -17 -17 -17 -17 -17 -18 -18
-25 -25 -25 -25 -25 -25 -25 -24 -23 -23 -23 -23 -22 -22 -21 -22 -22 -22 -22 -22 -22 -22 -20 -20 -19 -18 -17 -17 -17 -17 -17 -17 -17 -17 -17 -17 -17 -18 -18 -18 -18 -18 -18
-25 -25 -25 -25 -25 -25 -25 -25 -24 -24 -24 -24 -23 -23 -22 -23 -23 -22 -22 -22 -23 -22 -21 -20 -20 -19 -19 -19 -18 -17 -17 -18 -18 -17 -17 -17 -18 -18 -18 -18 -18 -18 -18
-26 -25 -25 -25 -25 -25 -26 -26 -25 -24 -24 -24 -24 -24 -24 -24 -23 -23 -22 -22 -22 -21 -21 -21 -21 -20 -20 -19 -18 -18 -18 -18 -18 -18 -18 -18 -18 -18 -18 -18 -19 -19 -19
-26 -26 -25 -25 -25 -26 -27 -27 -26 -26 -25 -25 -25 -24 -24 -24 -24 -24 -23 -23 -22 -21 -21 -20 -21 -20 -20 -20 -19 -19 -19 -18 -18 -18 -19 -19 -19 -19 -19 -20 -20 -20 -21
Height
5593 5601 5610 5616 5622 5626 5630 5633 5637 5639 5642 5644 5646 5648 5650 5655 5659 5661 5667 5673 5676 5681 5684 5690 5694 5696 5698 5700 5703 5705 5706 5708 5709 5713 5712 5711 5712 5713 5713 5716 5717 5719 5721
5581 5594 5601 5606 5612 5616 5619 5623 5625 5629 5631 5634 5635 5638 5640 5643 5648 5652 5656 5661 5665 5669 5674 5679 5682 5685 5688 5690 5692 5695 5697 5698 5699 5701 5704 5704 5702 5703 5706 5705 5707 5709 5711
5578 5585 5592 5597 5602 5605 5610 5613 5615 5619 5621 5624 5624 5626 5628 5632 5636 5641 5646 5650 5653 5657 5663 5667 5671 5674 5677 5681 5684 5685 5688 5689 5690 5690 5693 5694 5694 5692 5692 5693 5696 5698 5700
5568 5576 5582 5588 5594 5598 5602 5605 5608 5611 5613 5616 5616 5617 5617 5619 5623 5628 5633 5639 5643 5648 5652 5656 5659 5663 5667 5671 5672 5676 5678 5679 5679 5681 5684 5684 5683 5683 5680 5681 5684 5687 5689
5559 5567 5573 5579 5585 5589 5593 5595 5600 5604 5606 5606 5606 5605 5606 5606 5611 5616 5621 5626 5632 5635 5635 5642 5648 5652 5656 5660 5662 5665 5667 5669 5671 5672 5674 5674 5674 5672 5669 5670 5672 5676 5678
5553 5558 5565 5571 5576 5580 5583 5587 5591 5594 5596 5597 5597 5597 5598 5599 5599 5605 5609 5615 5621 5623 5624 5631 5637 5641 5644 5648 5652 5654 5657 5658 5661 5663 5664 5664 5664 5662 5661 5660 5661 5664 5667
5546 5551 5556 5563 5567 5570 5574 5577 5580 5584 5587 5589 5590 5591 5590 5591 5592 5593 5597 5603 5608 5614 5618 5622 5626 5630 5631 5635 5639 5642 5645 5647 5650 5652 5654 5654 5652 5650 5649 5648 5650 5653 5655
5543 5546 5550 5553 5556 5560 5564 5568 5570 5574 5577 5581 5582 5583 5584 5585 5585 5586 5585 5588 5594 5600 5606 5610 5614 5611 5613 5622 5628 5630 5634 5637 5640 5642 5642 5643 5642 5640 5640 5640 5641 5641 5643
5536 5539 5542 5545 5547 5551 5554 5558 5562 5564 5567 5569 5572 5574 5575 5575 5577 5577 5578 5578 5580 5586 5592 5596 5600 5601 5601 5610 5618 5620 5622 5626 5629 5632 5633 5633 5632 5630 5630 5631 5631 5631 5633
5532 5534 5537 5540 5541 5543 5546 5548 5551 5554 5557 5559 5561 5563 5565 5567 5567 5568 5568 5569 5570 5574 5579 5584 5589 5594 5595 5595 5603 5607 5611 5616 5618 5620 5621 5623 5623 5621 5620 5621 5622 5622 5621
5527 5528 5530 5533 5535 5536 5537 5539 5541 5544 5546 5548 5549 5551 5554 5556 5557 5558 5558 5560 5561 5563 5567 5571 5576 5581 5584 5587 5592 5595 5600 5603 5606 5608 5610 5611 5612 5611 5612 5611 5611 5609 5611
5520 5521 5522 5524 5525 5527 5528 5529 5531 5533 5534 5536 5538 5539 5540 5543 5546 5546 5547 5548 5551 5553 5555 5559 5563 5569 5573 5577 5580 5583 5588 5592 5593 5597 5598 5600 5601 5600 5600 5599 5598 5598 5600
5511 5511 5511 5512 5513 5513 5515 5516 5517 5518 5521 5522 5524 5526 5527 5529 5532 5534 5535 5537 5539 5542 5544 5547 5551 5555 5560 5560 5564 5570 5575 5579 5582 5584 5587 5589 5589 5589 5589 5588 5587 5586 5588
5503 5502 5502 5502 5501 5500 5499 5499 5499 5501 5502 5503 5506 5509 5511 5513 5515 5518 5521 5523 5525 5528 5532 5534 5537 5542 5545 5546 5546 5557 5562 5567 5569 5572 5575 5578 5578 5579 5578 5577 5575 5576 5577
5493 5491 5490 5489 5487 5484 5480 5479 5478 5477 5480 5482 5483 5486 5490 5493 5495 5499 5503 5508 5510 5513 5517 5521 5525 5530 5533 5537 5540 5544 5549 5553 5557 5561 5564 5567 5566 5568 5568 5567 5566 5567 5567
5481 5479 5476 5475 5472 5469 5465 5461 5460 5459 5457 5456 5458 5461 5463 5468 5473 5477 5481 5488 5494 5498 5502 5507 5511 5515 5520 5524 5529 5532 5536 5541 5544 5547 5552 5554 5555 5557 5557 5557 5557 5557 5558
5469 5466 5463 5462 5461 5458 5453 5449 5446 5442 5441 5439 5438 5438 5440 5442 5447 5453 5458 5465 5473 5480 5485 5490 5496 5500 5505 5510 5515 5520 5523 5528 5532 5535 5539 5541 5543 5546 5546 5546 5547 5548 5548
5458 5455 5454 5453 5451 5447 5441 5437 5434 5430 5426 5425 5424 5424 5425 5426 5428 5430 5436 5442 5450 5459 5467 5474 5479 5485 5491 5497 5503 5507 5511 5516 5519 5522 5525 5527 5531 5534 5535 5536 5537 5537 5538
5448 5447 5445 5442 5439 5437 5433 5429 5425 5419 5416 5413 5411 5411 5412 5412 5414 5416 5419 5422 5427 5435 5446 5456 5462 5469 5475 5482 5488 5493 5497 5502 5506 5510 5512 5514 5517 5521 5522 5523 5524 5525 5526
5438 5437 5435 5432 5429 5427 5424 5419 5414 5409 5406 5403 5401 5400 5400 5400 5400 5401 5402 5405 5409 5416 5426 5435 5443 5452 5460 5467 5473 5479 5483 5489 5492 5495 5499 5501 5504 5507 5509 5509 5510 5511 5513
5429 5427 5425 5422 5420 5417 5414 5411 5406 5402 5397 5393 5391 5390 5389 5386 5386 5385 5385 5388 5392 5399 5408 5417 5427 5436 5445 5453 5459 5466 5471 5474 5478 5482 5485 5488 5491 5493 5496 5496 5497 5498 5500
5422 5420 5417 5414 5411 5409 5405 5402 5399 5395 5391 5387 5383 5379 5377 5373 5369 5365 5365 5371 5377 5385 5393 5403 5412 5421 5430 5438 5446 5452 5457 5461 5465 5469 5472 5474 5477 5479 5481 5483 5485 5486 5488
5415 5413 5409 5406 5402 5399 5397 5395 5392 5389 5385 5381 5375 5371 5366 5359 5353 5352 5355 5360 5367 5374 5383 5392 5399 5408 5416 5425 5432 5437 5443 5448 5452 5456 5460 5463 5465 5466 5468 5469 5470 5472 5473
5407 5404 5400 5396 5393 5390 5388 5387 5385 5383 5380 5376 5370 5366 5359 5352 5348 5348 5350 5354 5359 5365 5374 5382 5390 5397 5405 5414 5422 5426 5431 5436 5440 5445 5447 5448 5449 5451 5453 5454 5456 5457 5458
5398 5395 5391 5387 5384 5381 5380 5379 5378 5376 5375 5372 5368 5363 5358 5352 5347 5346 5347 5351 5355 5360 5367 5373 5379 5386 5394 5401 5406 5411 5416 5421 5425 5429 5431 5432 5434 5437 5438 5439 5440 5441 5442
5390 5386 5383 5379 5375 5372 5371 5371 5370 5369 5368 5367 5365 5363 5359 5354 5350 5348 5348 5349 5353 5357 5361 5365 5372 5379 5385 5391 5396 5401 5405 5407 5409 5413 5415 5417 5419 5421 5423 5425 5426 5426 5427
Wind_Speed
44 50 50 51 48 45 44 37 33 36 38 41 45 47 44 47 39 46 46 48 46 45 44 48 39 38 41 36 35 34 32 33 33 29 31 35 36 37 39 42 40 40 40
42 45 48 48 43 35 34 31 33 33 30 37 45 48 46 46 40 40 41 50 53 42 39 40 38 40 44 38 37 35 34 34 37 34 31 35 31 36 43 40 39 40 42
50 46 43 39 36 40 27 25 25 28 32 30 36 53 48 46 46 37 42 42 44 43 44 44 42 42 43 42 38 36 36 36 37 38 32 37 40 40 36 46 42 46 43
39 40 36 36 37 31 32 28 24 24 22 24 28 33 36 60 50 44 41 45 44 41 44 45 43 44 43 44 41 40 39 37 37 37 36 36 40 38 43 40 43 45 44
51 50 49 38 42 32 32 26 27 25 27 24 26 25 33 35 56 46 43 43 46 49 49 45 45 46 43 46 45 42 40 40 41 35 35 36 37 40 40 40 42 45 45
45 35 42 35 33 32 33 31 33 28 23 25 24 20 20 29 44 54 49 45 48 48 41 44 45 47 44 46 47 45 42 42 40 37 36 37 35 39 35 34 39 45 44
44 42 42 43 40 35 34 39 44 29 25 28 26 21 18 17 18 34 60 56 52 48 47 46 48 48 48 49 47 47 46 44 41 36 36 36 38 39 37 34 40 42 48
36 40 44 46 45 43 42 43 39 31 28 31 30 29 27 25 16 21 32 50 63 53 51 51 48 52 57 49 49 49 46 45 41 38 37 37 38 39 38 33 33 33 38
21 27 35 38 37 39 38 37 38 36 32 30 31 32 30 32 29 22 25 33 38 57 56 54 54 54 47 51 48 48 46 45 42 39 37 37 39 39 37 36 36 37 34
11 12 14 18 22 29 35 38 37 36 31 29 30 33 32 33 36 34 21 28 33 38 55 58 55 53 54 52 42 48 48 46 43 40 38 37 37 39 39 39 35 37 38
20 18 19 21 23 24 24 25 26 34 32 32 33 34 35 32 35 39 39 32 30 36 40 48 54 51 50 49 44 50 53 48 44 41 39 39 36 35 36 39 46 44 40
24 25 27 28 29 31 33 33 34 34 35 35 35 34 35 36 38 39 38 34 32 33 37 39 48 53 52 52 50 53 53 47 45 42 42 39 37 35 37 37 38 42 41
30 32 34 37 40 38 38 41 44 46 47 46 46 45 44 46 45 42 41 41 40 33 34 39 40 46 53 51 52 49 49 48 46 43 42 39 37 36 35 37 38 44 47
27 29 29 31 36 40 42 45 47 49 51 51 55 56 56 54 55 52 47 42 44 44 38 38 39 42 56 41 44 44 51 49 45 45 44 41 36 36 34 34 32 32 35
26 27 30 33 37 41 44 45 47 50 54 57 61 63 64 64 63 62 57 51 47 48 49 39 41 46 51 52 52 50 55 49 47 48 45 42 36 37 32 32 31 34 37
29 32 33 36 37 40 40 40 39 38 43 50 57 63 67 69 67 69 69 63 56 53 52 49 43 45 53 51 51 51 55 51 49 50 47 43 38 39 35 31 30 32 36
36 37 38 38 38 38 35 35 37 38 37 40 43 47 50 55 61 66 66 67 66 60 52 54 49 49 52 49 52 56 51 47 46 48 48 43 41 42 38 34 32 33 36
40 37 37 39 38 35 32 30 33 36 37 34 36 41 44 44 44 49 59 63 63 62 59 61 54 52 53 53 57 51 50 48 46 46 46 42 42 44 42 38 36 36 37
39 35 34 32 32 33 31 28 30 31 29 31 31 33 38 41 46 50 52 53 57 60 64 60 53 55 56 59 55 57 51 49 50 45 46 45 44 46 45 45 41 39 40
29 30 32 29 27 28 29 27 26 25 28 30 34 34 35 36 39 42 48 52 55 56 57 58 54 55 58 58 60 47 50 50 51 48 50 48 46 42 40 41 47 43 44
26 26 25 25 23 24 25 26 25 26 27 25 29 32 38 40 40 39 43 48 50 51 52 55 55 56 56 56 49 49 54 52 48 45 45 48 50 44 41 38 40 42 45
24 25 26 27 27 25 23 24 24 24 26 23 23 25 30 35 41 39 36 44 48 49 51 56 57 56 58 57 56 57 54 46 44 46 42 43 46 45 49 43 40 40 44
26 29 29 30 30 29 26 23 23 23 22 23 22 23 22 24 22 25 28 33 42 44 47 53 53 54 53 60 60 50 53 50 46 43 45 47 48 53 51 49 49 51 53
30 31 33 30 28 28 28 25 22 22 20 20 20 20 20 19 11 17 23 24 32 38 39 43 45 47 48 51 53 50 50 47 46 52 56 56 57 60 57 55 56 56 57
31 32 32 32 30 29 27 25 22 19 19 16 17 17 16 16 11 9 15 23 27 30 33 34 38 43 46 50 57 56 54 54 59 61 63 61 59 59 58 57 56 57 56
30 31 33 31 29 25 23 21 19 17 17 16 13 13 13 13 10 6 10 18 26 31 33 35 36 39 44 48 49 48 47 51 55 58 57 53 52 51 52 50 49 48 47
Wind_Direction
230 236 239 242 247 250 253 250 243 254 260 258 258 256 257 241 246 246 242 240 241 243 244 239 243 242 244 244 248 252 257 259 262 266 255 258 258 256 245 247 253 251 253
214 230 239 244 244 236 243 255 242 244 251 252 248 245 249 240 237 240 238 242 236 236 239 243 243 242 242 245 249 253 256 258 262 270 252 254 254 244 257 256 251 255 257
230 238 242 239 234 248 248 239 241 249 257 250 253 240 241 247 233 237 241 237 238 236 239 243 243 242 244 246 248 255 256 256 264 268 270 257 256 264 265 255 255 252 254
228 232 231 227 232 241 235 235 243 250 247 263 259 255 259 246 240 229 241 242 239 240 241 240 243 242 244 247 249 250 254 256 263 266 273 275 265 269 272 259 250 251 254
225 225 234 230 234 237 237 234 247 252 251 272 259 265 256 266 237 229 233 238 240 243 235 234 243 241 242 245 248 251 255 257 257 262 273 278 276 268 272 255 251 251 252
224 235 229 234 232 235 247 232 245 254 260 267 255 246 262 264 245 233 232 235 237 243 248 243 240 242 242 245 248 252 254 255 258 262 270 273 278 269 270 258 249 243 245
225 228 236 237 247 245 249 254 248 250 251 252 258 252 248 258 280 257 237 237 237 242 243 245 241 241 242 243 246 251 251 254 256 262 265 273 275 279 268 261 249 245 247
244 246 247 243 248 251 255 254 252 246 244 249 254 250 252 256 259 273 264 247 240 238 244 247 247 248 238 242 247 248 251 254 256 260 263 270 274 278 265 265 238 249 248
248 252 248 244 242 248 254 260 263 250 245 251 257 258 257 249 262 266 271 257 253 241 238 245 248 253 258 242 247 253 253 254 254 257 260 265 273 279 268 253 261 249 259
290 277 271 263 259 256 256 257 252 242 249 257 257 259 258 248 255 266 268 270 260 254 243 243 248 250 250 250 252 252 253 255 253 256 261 262 266 271 267 255 262 250 261
261 259 264 265 269 264 257 256 256 250 255 258 258 258 261 265 264 259 264 273 267 259 252 246 245 246 250 253 258 245 251 253 252 253 260 262 264 269 259 268 263 254 252
258 261 262 269 270 269 269 264 264 263 263 261 259 260 264 267 269 265 255 261 273 262 255 250 245 241 246 250 250 249 245 250 249 254 258 259 266 268 259 268 262 251 250
263 260 259 257 255 257 261 266 268 270 268 267 267 267 266 265 263 264 261 257 258 267 256 249 246 245 242 252 249 239 245 248 248 252 258 260 265 268 262 268 265 255 248
278 275 273 274 273 270 265 262 263 266 268 269 267 267 265 263 265 264 260 258 250 257 262 254 244 245 243 243 229 240 250 253 252 252 255 259 263 266 265 266 263 250 249
276 279 284 286 290 287 282 276 271 268 263 263 267 267 263 260 262 263 263 257 255 252 260 257 248 240 239 238 250 248 239 251 253 252 252 257 260 263 266 263 257 257 249
290 288 292 292 293 293 289 285 279 275 272 267 261 258 258 257 257 259 261 259 254 252 248 257 252 243 237 240 239 245 239 250 253 250 250 255 258 261 259 259 260 253 259
297 293 292 295 294 295 287 285 285 286 277 270 268 267 260 254 251 250 251 249 250 249 250 247 251 243 236 234 235 241 244 249 251 252 248 250 257 259 260 259 257 256 255
295 298 293 286 290 295 294 291 291 288 280 273 271 263 262 262 259 254 245 241 241 243 247 252 247 239 235 229 233 242 245 248 250 246 247 247 257 262 261 260 259 257 256
286 290 293 290 289 291 297 292 295 292 273 273 274 267 262 262 258 257 255 250 242 238 243 249 240 237 232 230 233 235 240 250 255 246 243 248 256 258 265 262 258 257 259
285 288 294 293 292 290 294 299 303 306 291 278 266 269 267 263 261 256 249 247 241 236 236 236 231 229 231 225 234 231 237 252 251 246 240 249 255 263 266 271 266 257 256
299 298 296 297 302 296 294 302 301 307 308 293 279 273 268 269 260 264 254 240 237 231 226 225 222 224 225 226 228 227 237 241 239 245 247 250 253 256 263 270 263 260 262
304 303 300 299 301 302 301 298 305 304 310 297 301 284 272 270 272 264 245 235 228 225 221 218 216 219 221 225 223 230 230 230 235 243 249 259 254 260 260 262 262 258 256
296 299 302 300 297 297 298 301 297 303 310 314 313 308 304 302 276 246 229 229 223 218 219 214 215 216 221 222 225 232 224 232 239 249 252 256 252 253 252 255 260 262 258
298 300 306 308 301 293 290 293 293 295 304 318 328 326 331 330 308 231 215 217 220 211 216 218 218 218 221 221 225 232 233 241 246 248 251 250 246 245 247 252 256 255 256
303 301 305 308 306 294 285 284 287 284 291 308 329 341 342 345 328 282 228 215 210 207 211 211 218 218 217 224 229 235 239 242 246 246 250 245 244 245 251 255 254 253 258
305 305 305 309 308 290 277 278 280 281 281 290 311 335 352 356 358 320 236 220 214 213 213 210 216 220 222 225 230 237 240 241 242 244 246 246 248 251 254 254 256 257 260